DW9080 Weather Reports


time (UTC)temp
C
wind
direction
speed
KPH
gust
KPH
rain 1hr
cm
rain 24hr
cm
rain mn
cm
humidity
%
barometer
mb
20260506132549 20 61 0.0 1.6 0.00 0.00 0.00 51 1003.8
20260506132049 20 246 0.0 0.0 0.00 0.00 0.00 49 1003.8
20260506131552 20 246 0.0 1.6 0.00 0.00 0.00 47 1003.6
20260506131048 19 260 0.0 1.6 0.00 0.00 0.00 50 1003.5
20260506130529 18 243 0.0 0.0 0.00 0.00 0.00 54 1003.3
20260506130028 20 243 0.0 0.0 0.00 0.00 0.00 51 1003.3
20260506125525 20 243 0.0 0.0 0.00 0.00 0.00 49 1003.2
20260506125024 -17 0.0 0.0 0.00 0.00 0.00 1003.1
20260506124523 -17 0.0 0.0 0.00 0.00 0.00 1003.1
20260506124022 -17 0.0 0.0 0.00 0.00 0.00 1003.0
20260506123503 -17 0.0 0.0 0.00 0.00 0.00 1003.0
20260506123001 -17 0.0 0.0 0.00 0.00 0.00 1003.0
20260506122559 -17 0.0 0.0 0.00 0.00 0.00 1003.0
20260506122059 -17 0.0 0.0 0.00 0.00 0.00 1003.0
20260506121557 -17 0.0 0.0 0.00 0.00 0.00 1002.9
20260506121056 -17 0.0 0.0 0.00 0.00 0.00 1002.9
20260506120537 -17 0.0 0.0 0.00 0.00 0.00 1002.8
20260506120041 -17 0.0 0.0 0.00 0.00 0.00 1002.8
20260506115534 -17 0.0 0.0 0.00 0.00 0.00 1002.9
20260506115032 -17 0.0 0.0 0.00 0.00 0.00 1002.9
20260506114540 -17 0.0 0.0 0.00 0.00 0.00 1002.9
20260506114030 -17 0.0 0.0 0.00 0.00 0.00 1002.8
20260506113512 -17 0.0 0.0 0.00 0.00 0.00 1002.8
20260506113009 -17 0.0 0.0 0.00 0.00 0.00 1002.8
20260506112509 -17 0.0 0.0 0.00 0.00 0.00 1002.7
20260506112006 -17 0.0 0.0 0.00 0.00 0.00 1002.6
20260506111508 -17 0.0 0.0 0.00 0.00 0.00 1002.6
20260506111004 -17 0.0 0.0 0.00 0.00 0.00 1002.6
20260506110545 -17 0.0 0.0 0.00 0.00 0.00 1002.6
20260506110050 -17 0.0 0.0 0.00 0.00 0.00 1002.7
20260506105543 -17 0.0 0.0 0.00 0.00 0.00 1002.6
20260506105041 -17 0.0 0.0 0.00 0.00 0.00 1002.4
20260506104539 -17 0.0 0.0 0.00 0.00 0.00 1002.4
20260506104038 -17 0.0 0.0 0.00 0.00 0.00 1002.4
20260506103519 -17 0.0 0.0 0.00 0.00 0.00 1002.4
20260506103017 -17 0.0 0.0 0.00 0.00 0.00 1002.4
20260506102517 18 47 0.0 0.0 0.00 0.00 0.00 54 1002.4
20260506102016 18 47 0.0 0.0 0.00 0.00 0.00 54 1002.3
20260506101532 18 47 0.0 0.0 0.00 0.00 0.00 54 1002.3
20260506101015 18 47 0.0 0.0 0.00 0.00 0.00 54 1002.3
20260506100559 18 266 0.0 0.0 0.00 0.00 0.00 54 1002.3
20260506100056 18 266 0.0 0.0 0.00 0.00 0.00 54 1002.3
20260506095559 18 266 0.0 0.0 0.00 0.00 0.00 54 1002.3
20260506095055 18 266 0.0 0.0 0.00 0.00 0.00 54 1002.2
20260506094558 18 266 0.0 0.0 0.00 0.00 0.00 53 1002.2
20260506094054 18 266 0.0 0.0 0.00 0.00 0.00 53 1002.1
20260506093540 18 264 0.0 0.0 0.00 0.00 0.00 52 1002.2
20260506093037 19 264 0.0 0.0 0.00 0.00 0.00 52 1002.1
20260506092538 19 263 0.0 0.0 0.00 0.00 0.00 51 1002.1
20260506092037 19 263 0.0 0.0 0.00 0.00 0.00 50 1002.0
20260506091537 20 256 0.0 0.0 0.00 0.00 0.00 49 1002.0
20260506091038 20 285 0.0 0.0 0.00 0.00 0.00 48 1002.0
20260506090517 20 46 0.0 0.0 0.00 0.00 0.00 48 1002.0
20260506090020 20 46 0.0 0.0 0.00 0.00 0.00 47 1002.0
20260506085517 20 46 0.0 0.0 0.00 0.00 0.00 47 1002.1
20260506085019 20 47 0.0 0.0 0.00 0.00 0.00 47 1002.1
20260506084521 20 46 0.0 0.0 0.00 0.00 0.00 47 1002.2
20260506084017 21 46 0.0 0.0 0.00 0.00 0.00 46 1002.2
20260506083501 21 46 0.0 0.0 0.00 0.00 0.00 45 1002.3
20260506083101 21 46 0.0 0.0 0.00 0.00 0.00 45 1002.3
20260506082559 21 307 0.0 0.0 0.00 0.00 0.00 44 1002.3
20260506082104 21 20 0.0 0.0 0.00 0.00 0.00 44 1002.4
20260506081602 21 20 0.0 0.0 0.00 0.00 0.00 43 1002.4
20260506081100 22 297 0.0 1.6 0.00 0.00 0.00 42 1002.4
20260506080601 22 246 0.0 1.6 0.00 0.00 0.00 41 1002.3
20260506073023 22 136 0.0 4.8 0.00 0.00 0.00 42 1002.6
20260506072524 22 133 0.0 6.4 0.00 0.00 0.00 42 1002.7
20260506072023 22 129 0.0 6.4 0.00 0.00 0.00 42 1002.8
20260506071523 22 132 0.0 4.8 0.00 0.00 0.00 42 1002.8
20260506071022 22 60 0.0 8.0 0.00 0.00 0.00 42 1002.8
20260506070522 22 129 0.0 8.0 0.00 0.00 0.00 42 1002.9
20260506062052 22 143 0.0 6.4 0.00 0.00 0.00 41 1003.3
20260506061552 22 89 0.0 6.4 0.00 0.00 0.00 41 1003.4
20260506061052 22 191 0.0 4.8 0.00 0.00 0.00 41 1003.3
20260506060554 22 148 0.0 3.2 0.00 0.00 0.00 40 1003.4
20260506051052 23 63 0.0 0.0 0.00 0.00 0.00 41 1003.5
20260506050550 23 59 0.0 1.6 0.00 0.00 0.00 40 1003.4
20260506045049 23 75 0.0 1.6 0.00 0.00 0.00 39 1003.4
20260506044551 23 53 0.0 1.6 0.00 0.00 0.00 39 1003.5
20260506044048 23 64 0.0 0.0 0.00 0.00 0.00 38 1003.4
20260506043549 23 64 0.0 0.0 0.00 0.00 0.00 38 1003.3
20260506043030 23 65 0.0 0.0 0.00 0.00 0.00 38 1003.3
20260506042531 23 68 0.0 0.0 0.00 0.00 0.00 37 1003.3
20260506042034 23 67 0.0 0.0 0.00 0.00 0.00 36 1003.2
20260506041542 23 63 0.0 3.2 0.00 0.00 0.00 34 1003.2
20260506041029 24 74 0.0 3.2 0.00 0.00 0.00 32 1003.0
20260506040529 25 50 0.0 1.6 0.00 0.00 0.00 30 1002.8
20260506040012 25 236 0.0 1.6 0.00 0.00 0.00 28 1002.8
20260506035512 26 235 0.0 1.6 0.00 0.00 0.00 27 1002.6
20260506035012 26 252 0.0 8.0 0.00 0.00 0.00 27 1002.5
20260506034512 26 236 1.6 8.0 0.00 0.00 0.00 27 1002.3
20260506034012 26 236 0.0 6.4 0.00 0.00 0.00 27 1002.1
20260506033511 26 218 0.0 8.0 0.00 0.00 0.00 27 1002.0
20260506033100 26 212 0.0 9.7 0.00 0.00 0.00 27 1001.9
20260506032554 26 212 0.0 9.7 0.00 0.00 0.00 27 1001.8
20260506032054 26 240 0.0 14.5 0.00 0.00 0.00 27 1001.8
20260506031557 26 207 6.4 14.5 0.00 0.00 0.00 27 1001.7
20260506031056 26 236 0.0 1.6 0.00 0.00 0.00 27 1001.6
20260506030557 26 243 0.0 1.6 0.00 0.00 0.00 27 1001.5
20260506030035 26 222 0.0 9.7 0.00 0.00 0.00 27 1001.4
20260506025535 26 174 4.8 16.1 0.00 0.00 0.00 28 1001.3
20260506025035 26 228 8.0 16.1 0.00 0.00 0.00 28 1001.3
20260506024540 26 195 4.8 9.7 0.00 0.00 0.00 28 1001.2
20260506024035 26 201 0.0 1.6 0.00 0.00 0.00 28 1001.2
20260506023536 26 232 0.0 1.6 0.00 0.00 0.00 28 1001.1
20260506023016 26 235 0.0 1.6 0.00 0.00 0.00 28 1001.1
20260506022517 26 243 0.0 4.8 0.00 0.00 0.00 28 1000.9
20260506022015 26 160 0.0 8.0 0.00 0.00 0.00 28 1000.7
20260506021516 26 200 0.0 1.6 0.00 0.00 0.00 28 1000.6
20260506021016 27 228 0.0 1.6 0.00 0.00 0.00 28 1000.4
20260506020515 27 246 0.0 1.6 0.00 0.00 0.00 27 1000.3
20260506020059 27 233 0.0 1.6 0.00 0.00 0.00 27 1000.3
20260506015559 27 227 0.0 1.6 0.00 0.00 0.00 27 1000.1
20260506015059 27 207 0.0 1.6 0.00 0.00 0.00 27 1000.1
20260506014559 27 240 0.0 1.6 0.00 0.00 0.00 27 1000.0
20260506014100 27 235 0.0 1.6 0.00 0.00 0.00 27 1000.0
20260506013557 27 226 0.0 1.6 0.00 0.00 0.00 27 999.9
20260506013041 27 256 0.0 1.6 0.00 0.00 0.00 27 999.9
20260506012540 27 233 0.0 1.6 0.00 0.00 0.00 26 999.7
20260506012040 27 235 0.0 1.6 0.00 0.00 0.00 26 999.6
20260506011542 28 264 0.0 1.6 0.00 0.00 0.00 26 999.6
20260506011040 28 259 0.0 1.6 0.00 0.00 0.00 26 999.5
20260506010541 28 236 0.0 0.0 0.00 0.00 0.00 26 999.5
20260506010026 28 243 0.0 1.6 0.00 0.00 0.00 26 999.5
20260506005520 28 226 0.0 1.6 0.00 0.00 0.00 25 999.5
20260506005022 28 248 0.0 1.6 0.00 0.00 0.00 25 999.4
20260506004534 28 256 0.0 1.6 0.00 0.00 0.00 25 999.4
20260506004021 29 231 0.0 1.6 0.00 0.00 0.00 25 999.3
20260506003520 29 239 0.0 0.0 0.00 0.00 0.00 24 999.3
20260506003003 30 249 0.0 0.0 0.00 0.00 0.00 24 999.3
20260506002502 30 246 0.0 1.6 0.00 0.00 0.00 24 999.3
20260506002002 30 270 0.0 1.6 0.00 0.00 0.00 24 999.1
20260506001502 30 249 0.0 1.6 0.00 0.00 0.00 23 999.0
20260506001003 30 253 0.0 9.7 0.00 0.00 0.00 23 999.1
20260506000503 30 242 3.2 9.7 0.00 0.00 0.00 23 999.0
20260505235546 30 236 1.6 11.3 0.00 0.00 0.00 23 999.1
20260505235046 30 246 0.0 11.3 0.00 0.00 0.00 23 999.0
20260505234549 30 228 0.0 14.5 0.00 0.00 0.00 22 999.1
20260505234043 30 255 4.8 14.5 0.00 0.00 0.00 22 999.1
20260505233546 30 246 0.0 12.9 0.00 0.00 0.00 22 999.1
20260505233047 30 255 1.6 12.9 0.00 0.00 0.00 23 999.1
20260505232524 30 239 0.0 3.2 0.00 0.00 0.00 23 999.3
20260505232025 30 243 0.0 3.2 0.00 0.00 0.00 22 999.2
20260505231524 30 243 0.0 1.6 0.00 0.00 0.00 23 999.2
20260505231023 30 239 0.0 9.7 0.00 0.00 0.00 21 999.3
20260505230523 30 245 0.0 24.1 0.00 0.00 0.00 22 999.2
20260505230027 31 233 6.4 24.1 0.00 0.00 0.00 22 999.3
20260505225505 31 258 8.0 17.7 0.00 0.00 0.00 21 999.3
20260505225005 31 246 0.0 14.5 0.00 0.00 0.00 21 999.3
20260505224506 31 270 8.0 17.7 0.00 0.00 0.00 20 999.4
20260505224007 31 214 11.3 19.3 0.00 0.00 0.00 21 999.5
20260505223505 31 249 0.0 9.7 0.00 0.00 0.00 22 999.4
20260505223007 30 226 1.6 22.5 0.00 0.00 0.00 23 999.4
20260505222544 31 255 14.5 22.5 0.00 0.00 0.00 22 999.6
20260505222044 31 243 8.0 14.5 0.00 0.00 0.00 23 999.6
20260505221550 31 197 3.2 19.3 0.00 0.00 0.00 22 999.7
20260505221048 31 190 9.7 20.9 0.00 0.00 0.00 22 999.6
20260505220547 30 246 6.4 20.9 0.00 0.00 0.00 22 999.6
20260505220044 30 249 6.4 22.5 0.00 0.00 0.00 24 999.7
20260505215526 31 248 14.5 22.5 0.00 0.00 0.00 23 999.8
20260505215023 31 211 9.7 20.9 0.00 0.00 0.00 24 999.9
20260505214539 31 246 0.0 19.3 0.00 0.00 0.00 25 999.9
20260505214020 31 255 3.2 19.3 0.00 0.00 0.00 25 999.9
20260505213520 31 258 6.4 19.3 0.00 0.00 0.00 25 1000.0
20260505213033 31 253 1.6 20.9 0.00 0.00 0.00 26 1000.0
20260505212503 30 246 11.3 20.9 0.00 0.00 0.00 26 1000.0
20260505212001 30 214 8.0 24.1 0.00 0.00 0.00 25 1000.1
20260505211624 31 258 8.0 22.5 0.00 0.00 0.00 25 1000.2
20260505211100 31 246 3.2 12.9 0.00 0.00 0.00 26 1000.3
20260505210558 31 246 4.8 20.9 0.00 0.00 0.00 27 1000.3
20260505210106 30 252 11.3 24.1 0.00 0.00 0.00 26 1000.5
20260505205539 30 163 12.9 24.1 0.00 0.00 0.00 25 1000.5
20260505205039 31 253 0.0 3.2 0.00 0.00 0.00 25 1000.7
20260505204539 30 211 0.0 19.3 0.00 0.00 0.00 27 1000.7
20260505204037 31 253 8.0 22.5 0.00 0.00 0.00 27 1000.8
20260505203536 30 243 6.4 22.5 0.00 0.00 0.00 26 1000.9
20260505203043 30 224 8.0 25.7 0.00 0.00 0.00 25 1001.0
20260505202517 30 244 9.7 24.1 0.00 0.00 0.00 26 1001.1
20260505202016 30 266 3.2 17.7 0.00 0.00 0.00 27 1001.1
20260505201518 30 252 8.0 17.7 0.00 0.00 0.00 27 1001.2
20260505201014 30 270 0.0 9.7 0.00 0.00 0.00 28 1001.3
20260505200514 30 262 0.0 9.7 0.00 0.00 0.00 27 1001.5
20260505200012 30 248 0.0 1.6 0.00 0.00 0.00 29 1001.6
20260505195553 30 256 0.0 20.9 0.00 0.00 0.00 30 1001.6
20260505195054 30 260 3.2 20.9 0.00 0.00 0.00 30 1001.7
20260505194551 30 233 8.0 19.3 0.00 0.00 0.00 30 1001.9
20260505194053 29 262 1.6 19.3 0.00 0.00 0.00 30 1001.9
20260505193552 29 238 3.2 25.7 0.00 0.00 0.00 31 1002.1
20260505193051 29 259 0.0 20.9 0.00 0.00 0.00 32 1002.1
20260505192530 29 253 12.9 20.9 0.00 0.00 0.00 31 1002.2
20260505192031 29 246 3.2 20.9 0.00 0.00 0.00 32 1002.3
20260505191528 29 252 0.0 9.7 0.00 0.00 0.00 31 1002.4
20260505191027 29 239 1.6 24.1 0.00 0.00 0.00 32 1002.5
20260505190525 29 243 16.1 24.1 0.00 0.00 0.00 31 1002.6
20260505190031 29 257 8.0 19.3 0.00 0.00 0.00 31 1002.6
20260505185515 29 224 4.8 19.3 0.00 0.00 0.00 32 1002.7
20260505185011 28 210 0.0 17.7 0.00 0.00 0.00 32 1002.8
20260505184511 28 224 3.2 17.7 0.00 0.00 0.00 33 1002.9
20260505184009 28 259 4.8 22.5 0.00 0.00 0.00 34 1003.0
20260505183508 28 237 8.0 22.5 0.00 0.00 0.00 34 1003.1
20260505183012 28 238 0.0 17.7 0.00 0.00 0.00 34 1003.2
20260505182505 27 259 8.0 25.7 0.00 0.00 0.00 34 1003.3
20260505182003 27 229 12.9 20.9 0.00 0.00 0.00 34 1003.4
20260505181502 27 264 3.2 24.1 0.00 0.00 0.00 34 1003.4
20260505181004 27 253 8.0 24.1 0.00 0.00 0.00 35 1003.6
20260505180600 27 228 0.0 25.7 0.00 0.00 0.00 35 1003.7
20260505180059 27 257 12.9 25.7 0.00 0.00 0.00 35 1003.8
20260505180000 27 246 11.3 25.7 0.00 0.00 0.00 35 1003.9
20260505175559 27 218 0.0 25.7 0.00 0.00 0.00 35 1003.9
20260505175058 27 260 14.5 25.7 0.00 0.00 0.00 35 1004.1
20260505174558 27 231 12.9 25.7 0.00 0.00 0.00 35 1004.1
20260505174056 26 252 9.7 22.5 0.00 0.00 0.00 35 1004.2
20260505173556 26 261 0.0 19.3 0.00 0.00 0.00 36 1004.2
20260505173055 26 246 3.2 19.3 0.00 0.00 0.00 37 1004.1
20260505172554 26 208 9.7 19.3 0.00 0.00 0.00 36 1004.3
20260505172055 26 264 11.3 24.1 0.00 0.00 0.00 37 1004.5
20260505171553 26 266 16.1 24.1 0.00 0.00 0.00 37 1004.5
20260505171055 26 235 3.2 24.1 0.00 0.00 0.00 37 1004.4
20260505170554 26 264 8.0 24.1 0.00 0.00 0.00 38 1004.5
20260505170057 26 251 11.3 24.1 0.00 0.00 0.00 40 1004.6
20260505165548 25 250 8.0 20.9 0.00 0.00 0.00 40 1004.8
20260505165030 25 270 3.2 20.9 0.00 0.00 0.00 40 1004.9
20260505164535 25 236 6.4 24.1 0.00 0.00 0.00 41 1004.9
20260505164129 25 218 16.1 24.1 0.00 0.00 0.00 41 1004.9
20260505163528 25 248 0.0 3.2 0.00 0.00 0.00 41 1005.0
20260505163030 25 223 0.0 20.9 0.00 0.00 0.00 42 1005.0
20260505162526 25 207 8.0 20.9 0.00 0.00 0.00 43 1005.0
20260505162010 24 250 6.4 24.1 0.00 0.00 0.00 43 1005.0
20260505161507 24 246 12.9 24.1 0.00 0.00 0.00 43 1005.2
20260505161006 24 248 8.0 16.1 0.00 0.00 0.00 44 1005.0
20260505160505 23 205 0.0 20.9 0.00 0.00 0.00 44 1005.1
20260505153103 22 240 9.7 20.9 0.00 0.00 0.00 45 1005.3
20260505152548 22 243 11.3 20.9 0.00 0.00 0.00 46 1005.4
20260505152048 22 246 0.0 1.6 0.00 0.00 0.00 46 1005.3
20260505151546 22 236 0.0 3.2 0.00 0.00 0.00 47 1005.4
20260505151045 22 257 0.0 3.2 0.00 0.00 0.00 47 1005.4
20260505150546 22 256 0.0 1.6 0.00 0.00 0.00 48 1005.4
20260505140535 20 243 0.0 1.6 0.00 0.00 0.00 50 1005.1